{"data":{"norad_id":61925,"epoch":"2026-09-21T16:49:59.265696Z","epoch_age_seconds":81681,"freshness":"FRESH","line1":"1 61925U 24207P   26264.70138039  .00011961  00000+0  44340-3 0  9994","line2":"2 61925  42.9995 258.7342 0000899 266.6105  93.4644 15.27584241104651","mean_motion":15.27584241,"eccentricity":8.99e-5,"inclination_deg":42.9995,"raan_deg":258.7342,"arg_perigee_deg":266.6105,"mean_anomaly_deg":93.4644,"bstar":0.0004434,"rev_number":10465,"period_min":94.26648700286,"perigee_km":482.41957750095,"apogee_km":483.65321647773,"semimajor_km":6861.1733969893,"source":"CELESTRAK","updated_at":"2026-09-22T09:00:49.451287Z"}}